STARLINK-34017, 64339

Orbit data source: Space-Track

STARLINK-34017, 64339 is a payload satellite owned by SpaceX/Seattle (US) in LEO that was launched on Tue, 10 Jun 2025 UTC via an FALCON 9 launch vehicle from the Air Force Eastern Test Range (AFETR). Payload-class satellites include a variety of spacecraft equipped with specific instruments for various scientific and technological missions. These include communications satellites like Starlink; space stations such as the ISS; scientific satellites like the Hubble; Earth observation satellites from companies like Planet Labs, Umbra, and HawkEye 360; GPS; miniature CubeSats for education and research; and military/defense satellites.

Loading next visibility...
Identifier
64339, 2025-124Y
Orbit
LEO
Last TLE update
12 hours ago
Origin
Manufacturer
SpaceX/Seattle
Mission
Operational spacecraft
Bus & Motor
STARLINK V2MO, Unknown motor
Mass
575 kg wet, ~530 kg dry
Launch date (UTC)
2025-06-10 (1 month ago)
Launch vehicle
FALCON 9
Launch site
Air Force Eastern Test Range (AFETR)
Object type
Payload
Rocket body
Debris
Shape & HBR
Unknown
Radar Cross Section
Large (>1 m²)

Expand to show TLE details & history

TLE from 12 hours ago
0 STARLINK-34017
1 64339U 25124Y   25199.84566418  .00034166  00000-0  82073-3 0  9990
2 64339  42.9998   4.3565 0000741 276.3968  83.6804 15.40728720  5992
Epoch: 2025-07-18T20:17Z
TLE epoch observation values (Epoch: 2025-07-18T20:17:45.385Z)
Latitude
-0.00001°
Longitude
123.02611°
Altitude
443.676 km
Speed
7.648 km/s
True Right ascension
00h 17m 25s
True Declination
0° 00' 00"
Sunlit
Object was in full shadow at epoch
Visualization orbit readout
Latitude
-23.16391°
Longitude
92.92596°
Altitude
448.993 km
Speed
7.644 km/s
Apparent Right ascension
00h 42m 30s
Apparent Declination
-74° 27' 56"
Sunlit
Object is in full shadow
Visualization observer readout
Local Sidereal Time
21:24:35
Azimuth
166.54° S
Elevation
-28.997°
Doppler factor
1
Orbital elements
Apogee altitude
446.419 km
Perigee altitude
445.408 km
Semi-major axis
6,824.051 km
Eccentricity
0.00007
Inclination
42.9998°
RAAN
4.3565°
Arg. of periapsis
276.3968°
True anomaly
83.68884°
Mean anomaly
83.6804°
Eccentric anomaly
83.68462°
Mean motion
3.85017 °/min
Orbital period
93.5 mins
BSTAR
0.00082073
Loading maneuver chart data...
Loading SW <> Apogee altitude chart data...
Loading historical data...
Loading historical data...
Loading historical data...
Loading historical data...
Loading historical data...
Loading historical data...
Loading historical data...
|